Deering, AK

2:44 PM AKST on February 09, 2016 (GMT -0900)
Deering (New)

Weather History for PADE - November, 2012

Change the Weather History Date:

Thursday, November 22, 2012

  Actual Average (PAOT) Record (PAOT)
Temperature  
Mean Temperature -10 °F -  
Max Temperature 0 °F 12 °F 37 °F (1949)
Min Temperature -20 °F - -26 °F (1948)
Degree Days  
Heating Degree Days 75 58  
Month to date heating degree days 1204  
Since 1 July heating degree days 3886  
Cooling Degree Days 0    
Month to date cooling degree days  
Year to date cooling degree days  
Moisture  
Dew Point -16 °F    
Average Humidity 80    
Maximum Humidity 96    
Minimum Humidity 74    
Precipitation  
Precipitation 0.00 in 0.03 in 0.36 in (1973)
Month to date precipitation 0.56  
Year to date precipitation 10.03  
Snow  
Snow 0.00 in 0.40 in 3.80 in (1976)
Month to date snowfall 7.3  
Since 1 July snowfall 14.2  
Since 1 September snowfall 14.2  
Snow Depth -    
Sea Level Pressure  
Sea Level Pressure 30.36 in    
Wind  
Wind Speed 3 mph (SSW)    
Max Wind Speed 7 mph    
Max Gust Speed -    
Visibility 8 miles    
Events Snow    
T = Trace of Precipitation, MM = Missing Value Source: NWS Daily Summary

Daily Weather History Graph

Daily Weather History Graph

Search for Another Location

Airport or City:

Trip Planner

Search our weather history database for the weather conditions in past years. The results will help you decide how hot, cold, wet, or windy it might be!

Date:

Astronomy

Nov. 22, 2012 Rise Set
Actual Time 11:08 AM AKST 4:05 PM AKST
Civil Twilight 9:53 AM AKST 5:20 PM AKST
Nautical Twilight 8:44 AM AKST 6:29 PM AKST
Astronomical Twilight 7:42 AM AKST 7:31 PM AKST
Moon 2:59 PM AKST (11/22) 3:26 AM AKST (11/22)
Length of Visible Light 7h 26m
Length of Day
4h 56m
Waxing Gibbous, 72% of the Moon is Illuminated
Nov 22
Waxing Gibbous
Nov 28
Full
Dec 6
Last Quarter
Dec 12
New
Dec 19
First Quarter

Hourly Weather History & Observations

Time (AKST) Temp. Windchill Dew Point Humidity Pressure Visibility Wind Dir Wind Speed Gust Speed Precip Events Conditions
12:53 AM -0.0 °F - -2.9 °F 88% 30.36 in 0.8 mi Calm Calm - N/A   Mist
1:25 AM -0.4 °F -10.4 °F -4.0 °F 85% 30.36 in 1.2 mi SE 4.6 mph - N/A   Overcast
1:39 AM -0.4 °F -10.4 °F -5.8 °F 78% 30.36 in 2.5 mi ESE 4.6 mph - N/A   Overcast
1:53 AM -2.0 °F -12.2 °F -2.9 °F 96% 30.36 in 1.8 mi SSE 4.6 mph - N/A   Overcast
2:11 AM -2.2 °F -10.4 °F -5.8 °F 85% 30.37 in 0.8 mi South 3.5 mph - N/A   Mist
2:19 AM -2.2 °F -10.4 °F -5.8 °F 85% 30.37 in 1.2 mi SSE 3.5 mph - N/A   Overcast
3:30 AM -5.8 °F - -9.4 °F 84% 30.37 in 10.0 mi Calm Calm - N/A   Scattered Clouds
3:53 AM -9.0 °F -20.4 °F -13.0 °F 83% 30.38 in 10.0 mi South 4.6 mph - N/A   Clear
4:29 AM -9.4 °F -20.9 °F -14.8 °F 77% 30.38 in 10.0 mi WSW 4.6 mph - N/A   Partly Cloudy
4:53 AM -11.0 °F - -15.0 °F 83% 30.38 in 10.0 mi Calm Calm - N/A   Clear
5:53 AM -13.0 °F - -18.0 °F 78% 30.39 in 10.0 mi Calm Calm - N/A   Clear
6:53 AM -14.1 °F - -18.0 °F 82% 30.39 in 10.0 mi Calm Calm - N/A   Clear
7:53 AM -16.1 °F - -20.9 °F 79% 30.38 in 10.0 mi Calm Calm - N/A   Clear
8:53 AM -13.0 °F - -18.9 °F 75% 30.38 in 10.0 mi Calm Calm - N/A   Clear
9:53 AM -11.9 °F - -17.0 °F 78% 30.39 in 10.0 mi Calm Calm - N/A   Clear
10:53 AM -15.0 °F -29.3 °F -20.9 °F 75% 30.39 in 10.0 mi SSW 5.8 mph - 0.00 in   Clear
11:53 AM -16.1 °F - -20.0 °F 82% 30.40 in 10.0 mi Calm Calm - N/A   Clear
12:53 PM -14.1 °F -26.3 °F -18.9 °F 79% 30.38 in 10.0 mi SSW 4.6 mph - N/A   Clear
1:53 PM -14.1 °F -26.3 °F -18.9 °F 79% 30.38 in 10.0 mi SSW 4.6 mph - N/A   Clear
2:53 PM -14.1 °F -23.9 °F -18.9 °F 79% 30.36 in 10.0 mi South 3.5 mph - N/A   Clear
2:55 PM -13.0 °F - -18.4 °F 77% 30.35 in 10.0 mi Calm Calm - N/A   Clear
3:53 PM -11.9 °F - -18.0 °F 74% 30.35 in 10.0 mi Calm Calm - N/A   Clear
4:53 PM -15.0 °F - -20.0 °F 78% 30.34 in 10.0 mi Calm Calm - N/A   Clear
5:53 PM -18.0 °F -30.9 °F -22.0 °F 82% 30.33 in 10.0 mi South 4.6 mph - 0.00 in   Clear
6:53 PM -18.0 °F -28.5 °F -23.1 °F 78% 30.32 in 10.0 mi SSW 3.5 mph - 0.00 in   Clear
7:53 PM -20.0 °F -37.1 °F -25.1 °F 78% 30.32 in 10.0 mi South 6.9 mph - 0.00 in Snow Light Snow
8:53 PM -18.9 °F -32.0 °F -24.0 °F 78% 30.32 in 9.0 mi SW 4.6 mph - 0.00 in   Clear
9:53 PM -18.0 °F -34.7 °F -23.1 °F 78% 30.32 in 10.0 mi SSW 6.9 mph - 0.00 in   Clear
10:53 PM -14.1 °F -29.9 °F -18.9 °F 79% 30.30 in 10.0 mi SSW 6.9 mph - N/A   Clear
11:53 PM -16.1 °F -30.6 °F -22.0 °F 74% 30.30 in 10.0 mi SSW 5.8 mph - N/A   Clear